Regional Weather Roundup
Issued by NWS State College, PA

Home | Current Version | Previous Version | Text Only | Print | Product List | Glossary On
Versions: 1 2 3 4 5 6 7 8 9 10 11 12 13 14 15 16 17 18 19 20 21 22 23 24 25 26 27 28 29 30 31 32 33 34 35 36 37 38 39 40 41 42 43 44 45 46 47 48 49 50
000
ASUS41 KCTP 231310
RWRCTP

REGIONAL WEATHER ROUNDUP
NATIONAL WEATHER SERVICE STATE COLLEGE PA
800 AM EST THU NOV 23 2017

Note: "fair" indicates few or no clouds below 12,000 feet with no
significant weather and/or obstructions to visibility.

* = STATION THAT DOES NOT REPORT PRECIPITATION /E.G. RAIN...SNOW...ETC/
    THUNDER OR FOG.

PAZ002>004-007>009-013>016-020>023-029>032-231400-
WESTERN PENNSYLVANIA

CITY           SKY/WX    TMP DP  RH WIND       PRES   REMARKS
ERIE           CLOUDY    31  20  63 SW15      30.13R
MEADVILLE      CLOUDY    27  20  75 SW7       30.11S
FRANKLIN*      CLOUDY    26  20  77 SW7       30.11F
NEW CASTLE     FAIR      26  22  84 CALM      30.15F
BEAVER COUNTY  NOT AVBL
BUTLER*        CLOUDY    26  23  88 CALM      30.14F
PITTSBURGH INT CLOUDY    22  21  96 CALM      30.14F
PITTSBURGH     CLOUDY    24  18  77 S6        30.14F
INDIANA*       CLEAR     28  21  74 W5        30.17S
LATROBE        CLEAR     19  18  93 SW6       30.17F WCI  11
WASHINGTON CO* CLOUDY    21  19  92 S3        30.18F
$$

PAZ004>006-010>012-017>019-024>028-033>037-041-042-045-046-049>053-231400-
CENTRAL PENNSYLVANIA

CITY           SKY/WX    TMP DP  RH WIND       PRES   REMARKS
BRADFORD       CLOUDY    26  22  84 SW3       30.05F
DUBOIS         CLOUDY    27  18  69 W7        30.08F
CLEARFIELD     CLOUDY    30  21  69 W6        30.11F
JOHNSTOWN      PTCLDY    24  17  74 W5        30.07S
ALTOONA        CLOUDY    31  20  63 NW6       30.13R
STATE COLLEGE  CLOUDY    30  19  64 NW7       30.12S
WILLIAMSPORT   CLOUDY    31  19  61 W5        30.15F
SELINSGROVE    CLOUDY    26  22  84 CALM      30.18R
FT INDIANTOWN  CLOUDY    31  17  56 CALM      30.16R
CAPITAL CITY   CLOUDY    30  19  63 W5        30.17R
HARRISBURG     CLOUDY    30  23  75 N3        30.17R
YORK           CLOUDY    24  21  88 CALM      30.17R
$$

PAZ038>040-043-044-047-048-054-055-060>062-067>071-231400-
EASTERN PENNSYLVANIA

CITY           SKY/WX    TMP DP  RH WIND       PRES   REMARKS
SCRANTON       CLOUDY    29  18  63 NW9       30.11R
MOUNT POCONO   CLEAR     23  17  78 NW7       30.04R WCI  15
ALLENTOWN      CLOUDY    29  17  61 W5        30.15R
QUAKERTOWN*    CLOUDY    28  18  64 NW3       30.15R
READING        CLOUDY    28  21  75 NW8       30.16R
LANCASTER      CLOUDY    26  22  84 W3        30.17R
COATESVILLE    CLOUDY    28  21  74 NW7       30.16R
POTTSTOWN      CLOUDY    28  18  66 NW6       30.18R
BLUE BELL      CLOUDY    30  19  64 CALM      30.18R
DOYLESTOWN     CLOUDY    27  17  66 NW5       30.14R
WILLOW GROVE   NOT AVBL
NORTH PHILA    CLEAR     32  19  58 NW6       30.18R
PHILADELPHIA   PTCLDY    32  18  56 NW8       30.18R
$$




USA.gov is the U.S. government's official web portal to all federal, state and local government web resources and services.